Flag for Spain Weather past 2 weeks in Mahón, Menorca, Spain

Now
78 °F

Light rain. Passing clouds.


Feels Like: 79 °F
Forecast: 73 / 81 °F
Wind: 10 mph from Northeast

Location: Menorca / Mahon

Current Time: Aug 1, 2015 at 12:30:31 AM

Latest Report: Jul 31, 2015 at 11:00 PM


Visibility: 7 mi

Pressure: 29.87 "Hg

Humidity: 66%

Dew point: 65 °F

Location of MahónLocation

Historic Weather in Mahón — Graph

°F

Mahón temperature yesterday

Maximum temperature yesterday: 85 °F (at 3:00 PM)
Minimum temperature yesterday: 72 °F (at 6:00 AM)
Average temperature yesterday: 79 °F

Past Weeks' High & Low Weather Summary

 TemperatureHumidityPressure
High94 °F (Jul 21, 3:00 PM)94% (Jul 19, 7:00 AM)30.07 "Hg (Jul 19, 7:00 AM)
Low70 °F (Jul 26, 6:00 AM)36% (Jul 20, 3:00 PM)29.78 "Hg (Jul 31, 7:00 PM)
Average81 °F68%29.95 "Hg
* Reported Midnight between Jul 16 and Jul 17 — Jul 31 11:00 PM, Mahón, Weather by CustomWeather, © 2015

Note: Actual official high and low records may vary slightly from our data, if they occured in-between our weather recording intervals... More about our weather records

Advertising

Mahón weather history for previous 24 hours

 ConditionsComfort  
Time TempWeatherWind HumidityBarometerVisibility
11:00 PM
Fri, Jul 31
78 °FLight rain. Passing clouds.10 mph66%29.87 "Hg7 mi
10:00 PM78 °FWarm.No wind65%29.90 "HgN/A
9:00 PM78 °FWarm.14 mph63%29.80 "HgN/A
8:00 PM79 °FOvercast.14 mph61%29.79 "Hg12 mi
7:00 PM81 °FWarm.14 mph54%29.78 "HgN/A
6:00 PM83 °FWarm.12 mph46%29.82 "HgN/A
5:00 PM85 °FPassing clouds.12 mph44%29.85 "Hg19 mi
4:00 PM85 °FWarm.14 mph43%29.85 "HgN/A
3:00 PM85 °FPassing clouds.13 mph39%29.87 "Hg19 mi
2:00 PM85 °FPassing clouds.14 mph42%29.88 "Hg19 mi
1:00 PM83 °FWarm.10 mph41%29.89 "HgN/A
12:00 PM82 °FWarm.12 mph46%29.89 "HgN/A
11:00 AM81 °FPassing clouds.12 mph48%29.89 "Hg19 mi
10:00 AM80 °FWarm.12 mph51%29.89 "HgN/A
9:00 AM79 °FPassing clouds.13 mph53%29.88 "Hg19 mi
8:00 AM76 °FPassing clouds.10 mph56%29.88 "Hg19 mi
7:00 AM73 °FMild.10 mph67%29.85 "HgN/A
6:00 AM72 °FMild.9 mph74%29.87 "HgN/A
4:00 AM72 °FMild.6 mph58%29.88 "HgN/A
3:00 AM73 °FMild.10 mph63%29.86 "HgN/A
2:00 AM74 °FPassing clouds.9 mph68%29.90 "Hg9 mi
1:00 AM74 °FMild.12 mph68%29.91 "HgN/A
12:00 AM74 °FMild.12 mph68%29.92 "HgN/A
Weather by CustomWeather, © 2015

See weather overviewHow to use our weather pages